KG6SIB Weather Reports


Display with metric or nautical units.
time (UTC)temp
F
wind
direction
speed
MPH
gust
MPH
rain 1hr
in
rain 24hr
in
rain mn
in
humidity
%
barometer
mb
20181018122212 59 78 3.0 11.0 0.00 0.00 0.00 51 1018.2
20181018121713 59 223 2.0 15.0 0.00 0.00 0.00 50 1018.1
20181018121213 59 302 3.0 15.0 0.00 0.00 0.00 50 1018.0
20181018120712 59 334 5.0 14.0 0.00 0.00 0.00 50 1018.0
20181018120212 59 262 1.0 14.0 0.00 0.00 0.00 50 1017.9
20181018115712 59 321 2.0 14.0 0.00 0.00 0.00 50 1018.1
20181018115212 59 61 5.0 17.0 0.00 0.00 0.00 49 1018.0
20181018114714 59 40 10.0 17.0 0.00 0.00 0.00 48 1018.0
20181018114212 59 38 7.0 19.0 0.00 0.00 0.00 48 1018.0
20181018113712 59 43 9.0 19.0 0.00 0.00 0.00 47 1017.9
20181018113211 59 64 8.0 17.0 0.00 0.00 0.00 47 1017.8
20181018112711 59 43 4.0 17.0 0.00 0.00 0.00 46 1017.7
20181018112211 59 54 9.0 23.0 0.00 0.00 0.00 46 1017.6
20181018111711 59 67 10.0 23.0 0.00 0.00 0.00 47 1017.8
20181018111212 59 21 4.0 19.0 0.00 0.00 0.00 47 1017.8
20181018110711 59 14 6.0 21.0 0.00 0.00 0.00 46 1017.8
20181018110211 59 40 13.0 21.0 0.00 0.00 0.00 46 1017.7
20181018105710 59 55 11.0 21.0 0.00 0.00 0.00 45 1018.1
20181018105211 59 65 5.0 21.0 0.00 0.00 0.00 45 1018.2
20181018104711 59 71 9.0 20.0 0.00 0.00 0.00 45 1018.0
20181018104211 59 40 8.0 19.0 0.00 0.00 0.00 44 1018.0
20181018103709 59 348 6.0 19.0 0.00 0.00 0.00 44 1018.1
20181018103210 59 69 13.0 21.0 0.00 0.00 0.00 44 1018.1
20181018102711 59 53 8.0 21.0 0.00 0.00 0.00 44 1018.1
20181018101709 59 63 8.0 16.0 0.00 0.00 0.00 44 1018.2
20181018101209 58 15 9.0 13.0 0.00 0.00 0.00 44 1018.0
20181018100708 58 289 1.0 11.0 0.00 0.00 0.00 44 1018.2
20181018100239 59 19 10.0 17.0 0.00 0.00 0.00 42 1018.4
20181018095710 59 54 5.0 17.0 0.00 0.00 0.00 42 1018.6
20181018095209 58 65 6.0 12.0 0.00 0.00 0.00 42 1018.6
20181018094738 58 313 2.0 7.0 0.00 0.00 0.00 41 1018.5
20181018094208 58 352 1.0 14.0 0.00 0.00 0.00 42 1018.7
20181018093737 58 26 4.0 14.0 0.00 0.00 0.00 41 1018.8
20181018093238 57 317 3.0 11.0 0.00 0.00 0.00 42 1018.8
20181018092737 57 50 3.0 7.0 0.00 0.00 0.00 42 1018.9
20181018092237 56 4 1.0 4.0 0.00 0.00 0.00 43 1018.7
20181018091237 57 264 1.0 10.0 0.00 0.00 0.00 43 1018.9
20181018090737 56 301 2.0 10.0 0.00 0.00 0.00 44 1018.8
20181018090236 56 345 2.0 5.0 0.00 0.00 0.00 45 1018.9
20181018085737 56 205 1.0 3.0 0.00 0.00 0.00 45 1018.9
20181018085237 56 21 2.0 3.0 0.00 0.00 0.00 45 1018.9
20181018084736 57 206 0.0 2.0 0.00 0.00 0.00 44 1019.0
20181018084237 57 229 1.0 4.0 0.00 0.00 0.00 43 1019.1
20181018083736 57 292 2.0 4.0 0.00 0.00 0.00 44 1019.2
20181018083236 58 65 1.0 2.0 0.00 0.00 0.00 43 1019.4
20181018082736 58 290 0.0 6.0 0.00 0.00 0.00 42 1019.4
20181018082235 58 46 2.0 7.0 0.00 0.00 0.00 41 1019.4
20181018081735 58 18 4.0 7.0 0.00 0.00 0.00 42 1019.4
20181018081236 58 15 1.0 10.0 0.00 0.00 0.00 42 1019.4
20181018080736 58 351 4.0 10.0 0.00 0.00 0.00 41 1019.4
20181018080235 59 41 0.0 10.0 0.00 0.00 0.00 42 1019.5
20181018075735 59 29 6.0 9.0 0.00 0.00 0.00 41 1019.4
20181018075236 59 38 1.0 10.0 0.00 0.00 0.00 40 1019.5
20181018074735 59 344 0.0 10.0 0.00 0.00 0.00 40 1019.4
20181018074235 59 39 4.0 12.0 0.00 0.00 0.00 40 1019.2
20181018073734 59 27 2.0 14.0 0.00 0.00 0.00 39 1019.2
20181018073234 59 30 1.0 14.0 0.00 0.00 0.00 40 1019.2
20181018072734 59 3 4.0 14.0 0.00 0.00 0.00 40 1019.2
20181018072234 59 38 5.0 14.0 0.00 0.00 0.00 40 1019.1
20181018071734 60 359 1.0 18.0 0.00 0.00 0.00 39 1019.0
20181018071233 60 68 5.0 18.0 0.00 0.00 0.00 39 1019.1
20181018070734 59 360 7.0 14.0 0.00 0.00 0.00 40 1019.1
20181018065727 59 289 2.0 17.0 0.00 0.00 0.00 40 1018.8
20181018065228 60 14 10.0 20.0 0.00 0.00 0.00 40 1018.9
20181018064728 59 52 17.0 20.0 0.00 0.00 0.00 41 1018.8
20181018064227 59 47 12.0 19.0 0.00 0.00 0.00 41 1018.9
20181018063727 59 77 8.0 20.0 0.00 0.00 0.00 41 1018.9
20181018063226 59 49 8.0 20.0 0.00 0.00 0.00 42 1018.9
20181018062727 59 94 6.0 15.0 0.00 0.00 0.00 42 1018.9
20181018062226 59 54 8.0 20.0 0.00 0.00 0.00 42 1018.9
20181018061727 59 75 4.0 20.0 0.00 0.00 0.00 42 1018.9
20181018061226 59 37 6.0 14.0 0.00 0.00 0.00 42 1019.0
20181018060727 59 42 4.0 18.0 0.00 0.00 0.00 43 1018.9
20181018060226 59 8 6.0 18.0 0.00 0.00 0.00 43 1018.9
20181018055725 59 77 9.0 16.0 0.00 0.00 0.00 43 1018.6
20181018055226 59 96 6.0 18.0 0.00 0.00 0.00 43 1018.6
20181018054725 59 301 4.0 19.0 0.00 0.00 0.00 43 1018.5
20181018054225 59 36 3.0 26.0 0.00 0.00 0.00 44 1018.4
20181018053725 59 62 2.0 26.0 0.00 0.00 0.00 44 1018.3
20181018053225 59 45 8.0 26.0 0.00 0.00 0.00 44 1018.4
20181018052725 59 53 10.0 22.0 0.00 0.00 0.00 44 1018.4
20181018052225 59 58 7.0 22.0 0.00 0.00 0.00 43 1018.3
20181018051724 59 37 7.0 22.0 0.00 0.00 0.00 43 1018.3
20181018051224 59 42 18.0 22.0 0.00 0.00 0.00 43 1018.3
20181018050724 59 43 11.0 19.0 0.00 0.00 0.00 43 1018.3
20181018050224 59 41 9.0 20.0 0.00 0.00 0.00 43 1018.3
20181018045724 59 54 11.0 20.0 0.00 0.00 0.00 43 1018.2
20181018045224 59 23 14.0 16.0 0.00 0.00 0.00 43 1018.2
20181018044723 59 39 3.0 20.0 0.00 0.00 0.00 43 1018.2
20181018044223 59 41 3.0 20.0 0.00 0.00 0.00 43 1018.3
20181018043723 59 77 10.0 15.0 0.00 0.00 0.00 43 1018.3
20181018043224 59 329 3.0 15.0 0.00 0.00 0.00 43 1018.3
20181018042723 59 105 3.0 18.0 0.00 0.00 0.00 44 1018.4
20181018042223 59 97 7.0 18.0 0.00 0.00 0.00 44 1018.5
20181018041724 58 99 6.0 11.0 0.00 0.00 0.00 44 1018.3
20181018041222 58 129 4.0 13.0 0.00 0.00 0.00 44 1018.2
20181018040723 58 59 3.0 13.0 0.00 0.00 0.00 45 1018.3
20181018040223 58 38 3.0 7.0 0.00 0.00 0.00 44 1018.3
20181018035723 59 245 4.0 8.0 0.00 0.00 0.00 44 1018.3
20181018035223 58 21 6.0 10.0 0.00 0.00 0.00 44 1018.2
20181018034722 58 245 8.0 10.0 0.00 0.00 0.00 44 1018.0
20181018034222 58 20 4.0 6.0 0.00 0.00 0.00 44 1018.2
20181018033722 58 300 0.0 12.0 0.00 0.00 0.00 44 1018.1
20181018033222 58 153 2.0 12.0 0.00 0.00 0.00 43 1018.1
20181018032722 58 290 10.0 11.0 0.00 0.00 0.00 44 1018.0
20181018032221 58 289 2.0 4.0 0.00 0.00 0.00 44 1018.1
20181018031723 57 289 2.0 4.0 0.00 0.00 0.00 45 1018.1
20181018031222 57 235 0.0 4.0 0.00 0.00 0.00 46 1018.1
20181018030721 56 122 0.0 1.0 0.00 0.00 0.00 46 1017.9
20181018030221 56 250 0.0 4.0 0.00 0.00 0.00 46 1017.8
20181018025721 57 250 0.0 4.0 0.00 0.00 0.00 45 1017.6
20181018025221 58 205 2.0 4.0 0.00 0.00 0.00 44 1017.5
20181018024720 58 294 2.0 4.0 0.00 0.00 0.00 44 1017.6
20181018024221 58 179 0.0 3.0 0.00 0.00 0.00 44 1017.5
20181018023720 58 323 1.0 4.0 0.00 0.00 0.00 43 1017.6
20181018023220 59 51 0.0 5.0 0.00 0.00 0.00 43 1017.7
20181018022720 59 212 2.0 14.0 0.00 0.00 0.00 42 1017.7
20181018022220 59 311 4.0 14.0 0.00 0.00 0.00 42 1017.7
20181018021719 59 325 3.0 15.0 0.00 0.00 0.00 42 1017.6
20181018021219 59 39 6.0 15.0 0.00 0.00 0.00 42 1017.4
20181018020722 59 329 10.0 14.0 0.00 0.00 0.00 42 1017.3
20181018020219 59 321 2.0 19.0 0.00 0.00 0.00 42 1017.2
20181018015719 59 62 13.0 19.0 0.00 0.00 0.00 42 1016.6
20181018015218 59 88 9.0 19.0 0.00 0.00 0.00 43 1016.3
20181018014718 59 60 7.0 23.0 0.00 0.00 0.00 43 1016.4
20181018014219 59 63 13.0 23.0 0.00 0.00 0.00 43 1016.4
20181018013718 60 55 19.0 23.0 0.00 0.00 0.00 42 1016.8
20181018013220 60 66 5.0 23.0 0.00 0.00 0.00 42 1016.7
20181018012718 60 64 5.0 25.0 0.00 0.00 0.00 41 1016.6
20181018012219 60 84 9.0 25.0 0.00 0.00 0.00 41 1016.7
20181018011719 60 40 6.0 23.0 0.00 0.00 0.00 41 1016.6
20181018011218 61 60 12.0 22.0 0.00 0.00 0.00 41 1016.3
20181018010717 61 37 12.0 20.0 0.00 0.00 0.00 41 1016.6
20181018005721 61 83 17.0 19.0 0.00 0.00 0.00 40 1017.1
20181018005219 61 40 5.0 19.0 0.00 0.00 0.00 40 1017.1
20181018004719 62 69 7.0 15.0 0.00 0.00 0.00 40 1017.1
20181018004219 62 47 7.0 13.0 0.00 0.00 0.00 40 1017.1
20181018003719 62 75 7.0 18.0 0.00 0.00 0.00 39 1017.0
20181018003220 62 111 9.0 18.0 0.00 0.00 0.00 39 1017.1
20181018002719 62 77 10.0 16.0 0.00 0.00 0.00 39 1017.0
20181018002219 63 65 11.0 23.0 0.00 0.00 0.00 39 1017.3
20181018001719 63 73 12.0 23.0 0.00 0.00 0.00 38 1017.4
20181018001218 63 67 14.0 21.0 0.00 0.00 0.00 38 1017.2
20181018000719 63 96 10.0 20.0 0.00 0.00 0.00 38 1017.1
20181018000219 63 89 9.0 20.0 0.00 0.00 0.00 38 1017.1
20181017235718 64 123 8.0 19.0 0.00 0.00 0.00 38 1017.0
20181017235219 64 108 7.0 17.0 0.00 0.00 0.00 37 1017.0
20181017234719 64 51 11.0 18.0 0.00 0.00 0.00 37 1017.0
20181017234218 64 359 9.0 19.0 0.00 0.00 0.00 37 1017.0
20181017233717 64 69 12.0 19.0 0.00 0.00 0.00 37 1017.0
20181017233217 64 115 9.0 22.0 0.00 0.00 0.00 36 1017.0
20181017232717 65 63 10.0 22.0 0.00 0.00 0.00 35 1017.2
20181017232217 65 114 12.0 18.0 0.00 0.00 0.00 35 1017.3
20181017231717 65 103 10.0 21.0 0.00 0.00 0.00 35 1017.1
20181017231217 65 89 4.0 25.0 0.00 0.00 0.00 34 1017.3
20181017230716 65 60 9.0 25.0 0.00 0.00 0.00 34 1017.2
20181017230216 66 118 5.0 17.0 0.00 0.00 0.00 34 1017.1
20181017225717 66 32 9.0 21.0 0.00 0.00 0.00 33 1017.2
20181017225216 65 87 12.0 21.0 0.00 0.00 0.00 33 1017.1
20181017224716 66 40 18.0 19.0 0.00 0.00 0.00 33 1017.3
20181017224216 66 357 6.0 20.0 0.00 0.00 0.00 33 1017.2
20181017223716 66 5 7.0 20.0 0.00 0.00 0.00 33 1017.3
20181017223216 66 66 20.0 20.0 0.00 0.00 0.00 33 1017.4
20181017222716 66 68 8.0 20.0 0.00 0.00 0.00 32 1017.4
20181017222215 66 37 9.0 19.0 0.00 0.00 0.00 33 1017.4
20181017221717 66 72 10.0 19.0 0.00 0.00 0.00 33 1017.4
20181017221215 66 82 19.0 20.0 0.00 0.00 0.00 32 1017.5
20181017220715 66 99 3.0 20.0 0.00 0.00 0.00 32 1017.3
20181017220215 67 102 7.0 18.0 0.00 0.00 0.00 31 1017.3
20181017215715 67 73 8.0 18.0 0.00 0.00 0.00 32 1017.3
20181017215214 66 65 11.0 17.0 0.00 0.00 0.00 32 1017.4
20181017214715 66 56 7.0 17.0 0.00 0.00 0.00 32 1017.3
20181017214215 67 103 11.0 17.0 0.00 0.00 0.00 31 1017.3
20181017213715 66 63 9.0 19.0 0.00 0.00 0.00 32 1017.4
20181017213214 66 58 11.0 19.0 0.00 0.00 0.00 31 1017.5
20181017212714 66 126 4.0 23.0 0.00 0.00 0.00 32 1017.4
20181017212213 66 105 7.0 23.0 0.00 0.00 0.00 33 1017.4
20181017211714 66 118 12.0 18.0 0.00 0.00 0.00 32 1017.4
20181017211214 67 53 11.0 16.0 0.00 0.00 0.00 32 1017.4
20181017210715 67 72 10.0 17.0 0.00 0.00 0.00 32 1017.5
20181017210214 66 40 9.0 17.0 0.00 0.00 0.00 32 1017.5
20181017205714 66 13 4.0 17.0 0.00 0.00 0.00 33 1016.9
20181017205213 66 42 7.0 18.0 0.00 0.00 0.00 32 1017.2
20181017204713 65 51 5.0 21.0 0.00 0.00 0.00 32 1017.1
20181017204212 65 59 10.0 21.0 0.00 0.00 0.00 33 1017.2
20181017203713 65 62 16.0 19.0 0.00 0.00 0.00 33 1017.3
20181017203213 66 157 2.0 16.0 0.00 0.00 0.00 32 1017.3
20181017202713 67 119 9.0 18.0 0.00 0.00 0.00 31 1017.7
20181017202212 66 25 7.0 18.0 0.00 0.00 0.00 31 1017.5
20181017201712 66 73 5.0 15.0 0.00 0.00 0.00 32 1017.6
20181017201213 66 151 4.0 12.0 0.00 0.00 0.00 31 1017.7
20181017200712 65 298 5.0 14.0 0.00 0.00 0.00 32 1017.8
20181017200241 66 124 2.0 15.0 0.00 0.00 0.00 31 1018.0
20181017195713 65 90 2.0 19.0 0.00 0.00 0.00 31 1018.0
20181017195213 65 121 7.0 19.0 0.00 0.00 0.00 31 1018.0
20181017194711 66 13 13.0 23.0 0.00 0.00 0.00 31 1018.4
20181017194211 65 342 2.0 23.0 0.00 0.00 0.00 31 1018.2
20181017193713 65 64 3.0 20.0 0.00 0.00 0.00 32 1018.1
20181017193211 65 19 6.0 20.0 0.00 0.00 0.00 32 1018.2
20181017192711 65 36 8.0 18.0 0.00 0.00 0.00 32 1018.2
20181017192210 64 62 18.0 20.0 0.00 0.00 0.00 33 1018.2
20181017191711 64 53 14.0 22.0 0.00 0.00 0.00 33 1018.2
20181017191210 64 120 4.0 22.0 0.00 0.00 0.00 34 1018.2
20181017190710 63 49 15.0 22.0 0.00 0.00 0.00 34 1018.1
20181017185735 64 80 2.0 20.0 0.00 0.00 0.00 34 1018.7
20181017185234 64 358 8.0 21.0 0.00 0.00 0.00 35 1018.6
20181017184735 64 307 9.0 21.0 0.00 0.00 0.00 35 1018.7
20181017184234 64 75 18.0 18.0 0.00 0.00 0.00 36 1018.6
20181017183734 63 6 7.0 21.0 0.00 0.00 0.00 36 1018.8
20181017183234 63 46 6.0 22.0 0.00 0.00 0.00 37 1018.7
20181017182736 63 46 14.0 22.0 0.00 0.00 0.00 37 1018.8
20181017182235 62 44 7.0 20.0 0.00 0.00 0.00 38 1018.6
20181017181733 62 97 9.0 16.0 0.00 0.00 0.00 39 1018.4
20181017181233 62 36 5.0 19.0 0.00 0.00 0.00 39 1018.7
20181017180734 62 240 7.0 24.0 0.00 0.00 0.00 39 1018.6
20181017180235 62 41 14.0 24.0 0.00 0.00 0.00 39 1018.6
20181017175733 61 122 9.0 21.0 0.00 0.00 0.00 40 1018.6
20181017175233 61 125 8.0 20.0 0.00 0.00 0.00 41 1018.6
20181017174732 61 82 12.0 20.0 0.00 0.00 0.00 40 1018.6
20181017174234 60 227 4.0 21.0 0.00 0.00 0.00 41 1018.4
20181017173732 61 335 6.0 21.0 0.00 0.00 0.00 41 1018.5
20181017173232 61 211 3.0 15.0 0.00 0.00 0.00 42 1018.5
20181017172732 61 12 5.0 15.0 0.00 0.00 0.00 42 1018.5
20181017172232 60 72 9.0 17.0 0.00 0.00 0.00 42 1018.4
20181017171732 60 50 11.0 17.0 0.00 0.00 0.00 42 1018.6
20181017171232 61 23 2.0 9.0 0.00 0.00 0.00 42 1018.6
20181017170732 60 164 1.0 17.0 0.00 0.00 0.00 42 1018.6
20181017170231 60 29 4.0 17.0 0.00 0.00 0.00 43 1018.6
20181017165731 60 113 3.0 11.0 0.00 0.00 0.00 42 1019.4
20181017165231 60 110 3.0 11.0 0.00 0.00 0.00 42 1019.3
20181017164730 60 47 4.0 10.0 0.00 0.00 0.00 43 1019.2
20181017164231 59 98 4.0 10.0 0.00 0.00 0.00 44 1019.0
20181017163731 59 109 10.0 12.0 0.00 0.00 0.00 44 1019.1
20181017163232 59 61 10.0 12.0 0.00 0.00 0.00 44 1019.1
20181017162732 59 98 4.0 20.0 0.00 0.00 0.00 43 1019.0
20181017162230 59 205 0.0 20.0 0.00 0.00 0.00 43 1019.2
20181017161730 58 134 8.0 9.0 0.00 0.00 0.00 44 1019.2
20181017161231 58 86 3.0 9.0 0.00 0.00 0.00 44 1019.1
20181017160730 58 43 5.0 9.0 0.00 0.00 0.00 45 1019.0
20181017160230 57 198 4.0 13.0 0.00 0.00 0.00 45 1018.8
20181017155730 57 155 2.0 13.0 0.00 0.00 0.00 46 1019.2
20181017155230 57 79 2.0 11.0 0.00 0.00 0.00 46 1019.3
20181017154729 56 66 2.0 16.0 0.00 0.00 0.00 46 1019.0
20181017154230 56 143 2.0 16.0 0.00 0.00 0.00 46 1019.1
20181017153729 56 107 9.0 15.0 0.00 0.00 0.00 47 1018.9
20181017153228 55 82 12.0 14.0 0.00 0.00 0.00 46 1018.9
20181017152728 55 23 2.0 12.0 0.00 0.00 0.00 47 1019.1
20181017152229 54 56 6.0 12.0 0.00 0.00 0.00 48 1018.7
20181017151728 54 63 3.0 12.0 0.00 0.00 0.00 49 1018.5
20181017151228 53 141 0.0 16.0 0.00 0.00 0.00 50 1018.6
20181017150729 53 96 3.0 16.0 0.00 0.00 0.00 50 1018.6
20181017150228 53 72 5.0 15.0 0.00 0.00 0.00 49 1018.7
20181017145727 53 105 1.0 15.0 0.00 0.00 0.00 50 1018.3
20181017145228 52 97 6.0 14.0 0.00 0.00 0.00 50 1018.3
20181017144727 52 175 3.0 7.0 0.00 0.00 0.00 51 1018.4
20181017144227 51 44 1.0 10.0 0.00 0.00 0.00 52 1018.1
20181017143727 50 129 4.0 10.0 0.00 0.00 0.00 54 1018.0
20181017143226 49 59 2.0 7.0 0.00 0.00 0.00 53 1017.7
20181017142726 50 167 0.0 5.0 0.00 0.00 0.00 50 1017.9
20181017142226 49 278 4.0 6.0 0.00 0.00 0.00 52 1017.7
20181017141727 49 273 1.0 6.0 0.00 0.00 0.00 51 1017.7
20181017141226 49 245 1.0 3.0 0.00 0.00 0.00 49 1017.5
20181017140727 50 18 0.0 2.0 0.00 0.00 0.00 48 1017.8
20181017140226 50 295 1.0 3.0 0.00 0.00 0.00 48 1017.7
20181017135727 51 218 1.0 5.0 0.00 0.00 0.00 47 1017.9
20181017135226 51 263 3.0 5.0 0.00 0.00 0.00 47 1017.9
20181017134726 51 212 3.0 4.0 0.00 0.00 0.00 45 1017.9
20181017134226 51 144 2.0 3.0 0.00 0.00 0.00 46 1017.8
20181017133725 51 218 1.0 3.0 0.00 0.00 0.00 41 1017.8
20181017133226 52 191 0.0 9.0 0.00 0.00 0.00 40 1017.9
20181017132726 53 97 0.0 9.0 0.00 0.00 0.00 40 1017.9
20181017132225 53 74 3.0 6.0 0.00 0.00 0.00 39 1018.0
20181017131725 53 63 6.0 7.0 0.00 0.00 0.00 39 1018.0
20181017131224 53 85 3.0 14.0 0.00 0.00 0.00 38 1018.0
20181017130725 53 86 6.0 14.0 0.00 0.00 0.00 37 1017.9
20181017125732 53 217 5.0 7.0 0.00 0.00 0.00 36 1017.9
20181017125232 53 150 0.0 5.0 0.00 0.00 0.00 35 1017.8
20181017124732 53 273 4.0 6.0 0.00 0.00 0.00 36 1017.7
20181017124232 53 283 3.0 7.0 0.00 0.00 0.00 36 1017.6
20181017123732 53 334 2.0 7.0 0.00 0.00 0.00 37 1017.6
20181017123231 52 153 0.0 5.0 0.00 0.00 0.00 36 1017.3
20181017122731 52 156 3.0 7.0 0.00 0.00 0.00 35 1017.3